TimeEST,TemperatureF,Dew PointF,Humidity,Sea Level PressureIn,VisibilityMPH,Wind Direction,Wind SpeedMPH,Gust SpeedMPH,PrecipitationIn,Events,Conditions,WindDirDegrees,DateUTC
12:53 AM,64.9,62.1,90,30.13,4.0,Calm,Calm,-,N/A,,Clear,0,2013-01-15 05:53:00
1:53 AM,64.0,61.0,90,30.12,5.0,Calm,Calm,-,N/A,,Clear,0,2013-01-15 06:53:00
2:53 AM,64.0,62.1,93,30.11,9.0,Calm,Calm,-,N/A,,Clear,0,2013-01-15 07:53:00
3:53 AM,63.0,62.1,97,30.10,9.0,NE,3.5,-,N/A,,Clear,50,2013-01-15 08:53:00
4:53 AM,62.1,62.1,100,30.10,9.0,NE,3.5,-,N/A,,Clear,40,2013-01-15 09:53:00
6:53 AM,61.0,61.0,100,30.11,7.0,ENE,4.6,-,N/A,,Clear,60,2013-01-15 11:53:00
7:53 AM,63.0,63.0,100,30.13,6.0,NE,3.5,-,N/A,,Clear,40,2013-01-15 12:53:00
8:53 AM,68.0,64.9,90,30.14,9.0,ENE,5.8,-,N/A,,Clear,70,2013-01-15 13:53:00
9:53 AM,73.0,66.0,79,30.14,10.0,East,6.9,-,N/A,,Clear,100,2013-01-15 14:53:00
10:53 AM,77.0,66.0,69,30.12,10.0,Variable,5.8,-,N/A,,Partly Cloudy,0,2013-01-15 15:53:00
11:53 AM,79.0,63.0,58,30.09,10.0,SSE,10.4,-,N/A,,Scattered Clouds,160,2013-01-15 16:53:00
12:53 PM,79.0,62.1,56,30.08,10.0,SSE,6.9,-,N/A,,Mostly Cloudy,150,2013-01-15 17:53:00
1:53 PM,80.1,61.0,52,30.06,10.0,SE,6.9,-,N/A,,Overcast,130,2013-01-15 18:53:00
2:53 PM,79.0,64.9,62,30.04,10.0,SW,9.2,-,N/A,,Mostly Cloudy,230,2013-01-15 19:53:00
3:53 PM,78.1,63.0,60,30.05,10.0,SSW,10.4,-,N/A,,Mostly Cloudy,200,2013-01-15 20:53:00
4:53 PM,78.1,62.1,58,30.06,10.0,SSW,11.5,-,N/A,,Mostly Cloudy,200,2013-01-15 21:53:00
5:53 PM,75.9,63.0,64,30.07,10.0,South,6.9,-,N/A,,Mostly Cloudy,190,2013-01-15 22:53:00
6:53 PM,73.9,64.9,73,30.07,10.0,South,4.6,-,N/A,,Overcast,190,2013-01-15 23:53:00
7:53 PM,73.9,66.0,76,30.07,10.0,Calm,Calm,-,N/A,,Mostly Cloudy,0,2013-01-16 00:53:00
8:53 PM,73.0,64.9,76,30.06,10.0,ESE,5.8,-,N/A,,Overcast,110,2013-01-16 01:53:00
9:53 PM,71.1,66.0,84,30.06,10.0,SE,9.2,-,N/A,,Partly Cloudy,130,2013-01-16 02:53:00
10:53 PM,70.0,66.0,87,30.05,10.0,ESE,5.8,-,N/A,,Clear,110,2013-01-16 03:53:00
11:53 PM,68.0,66.0,93,30.06,10.0,ESE,4.6,-,N/A,,Clear,110,2013-01-16 04:53:00